Regional Weather Roundup
Issued by NWS

Home | Current Version | Previous Version | Text Only | Print | Product List | Glossary Off
Versions: 1 2 3 4 5 6 7 8 9 10 11 12 13 14 15 16 17 18 19 20 21 22 23 24 25 26 27 28 29 30 31 32 33 34 35 36 37 38 39 40 41 42 43 44 45 46 47 48 49 50

000
ASUS43 KMKX 271511
RWRWI

WISCONSIN REGIONAL WEATHER ROUNDUP
NATIONAL WEATHER SERVICE MILWAUKEE/SULLIVAN WI
900 AM CST SAT DEC 27 2014

NOTE: "FAIR" INDICATES FEW OR NO CLOUDS BELOW 12,000 FEET WITH NO
SIGNIFICANT WEATHER AND/OR OBSTRUCTIONS TO VISIBILITY.

WIZ001-002-006>008-014>016-023>028-271600-
NORTHWEST WISCONSIN

CITY           SKY/WX    TMP DP  RH WIND       PRES   REMARKS
SUPERIOR ARPT  CLOUDY    22  17  79 NW10      30.04S WCI  11
ASHLAND        LGT SNOW  26  24  92 N10       29.99S FOG     WCI  16
HAYWARD        LGT SNOW  24  20  84 NW5       29.96S FOG     WCI  18
SIREN          CLOUDY    22  19  88 NW9       30.03R WCI  12
CUMBERLAND     LGT SNOW  21  19  93 NW15      29.97R WCI   8
RICE LAKE      LGT SNOW  25  22  87 NW8       29.98R WCI  16
CHETEK         LGT SNOW  25  23  92 NW7       29.96R WCI  17
LADYSMITH      LGT SNOW  28  26  92 N15       29.92R WCI  16
EAU CLAIRE     LGT SNOW  28  23  81 NW10      29.93S WCI  19
MENOMONIE      MIX PCPN  27  23  85 NW15G22   29.97R WCI  16
NEW RICHMOND   CLOUDY    22  21  94 NW10G18   30.02R WCI  11
OSCEOLA        LGT SNOW  23  23  98 NW10      30.06S WCI  13
$$

WIZ003>005-009-010-017-018-271600-
NORTH CENTRAL WISCONSIN

CITY           SKY/WX    TMP DP  RH WIND       PRES   REMARKS
MANITOWISH WTR LGT SNOW  27  27 100 N7        29.87S VSB 3/4 WCI  20
ARBOR VITAE    LGT SNOW  30  28  93 N9        29.85S WCI  21
WOODRUFF       LGT SNOW  30  28  93 N9        29.85S WCI  21
RHINELANDER    SNOW      28  27  96 N8        29.82F VSB 1/2 WCI  20
EAGLE RIVER    LGT SNOW  28  28  99 N5        29.83R WCI  23
LAND O LAKES   LGT SNOW  29  27  95 N8        29.85S WCI  21
PHILLIPS       LGT SNOW  28  26  95 N8        29.87S VSB 3/4 WCI  19
TOMAHAWK       LGT SNOW  29  27  94 CALM      29.84S
MEDFORD        LGT SNOW  29  27  94 N9        29.83R VSB 1   WCI  20
MERRILL        LGT SNOW  30  30 100 N5        29.81S VSB 1   WCI  25
$$

WIZ029-030-035-036-043>047-271600-
CENTRAL WISCONSIN

CITY           SKY/WX    TMP DP  RH WIND       PRES   REMARKS
WAUSAU         LGT SNOW  32  31  96 CALM      29.79F VSB 1
MOSINEE        LGT SNOW  32  32 100 N3        29.82F FOG
MARSHFIELD     LGT SNOW  32  30  92 NW8       29.82R FOG     WCI  25
STEVENS POINT  MIX PCPN  31  31 100 CALM      29.81S
WAUPACA        CLOUDY    35  34  96 CALM      29.82S FOG
WAUTOMA        CLOUDY    36  36 100 SW5       29.83R FOG     WCI  32
WISC RAPIDS    LGT RAIN  33  31  92 W3        29.83R FOG
CAMP DOUGLAS   CLOUDY    33  33 100 W10       29.84F FOG     WCI  25
$$

WIZ011>013-019>022-031-037>040-048>050-271600-
NORTHEAST WISCONSIN

CITY           SKY/WX    TMP DP  RH WIND       PRES   REMARKS
ANTIGO         SNOW      30  30 100 NE5       29.80F VSB 1/2 WCI  25
SHAWANO        LGT RAIN  34  33  96 CALM      29.83R
OCONTO         CLOUDY    34  34 100 W5        29.80F WCI  30
STURGEON BAY   CLOUDY    39  37  93 S7        29.79F WCI  34
GREEN BAY      RAIN      35  34  96 W6        29.80F FOG     WCI  30
MANITOWOC      LGT RAIN  41  41 100 S10       29.80F VSB 1
APPLETON       LGT RAIN  36  36 100 W7        29.82  VSB 3/4 WCI  30
CLINTONVILLE   RAIN      32  32 100 N5        29.81F WCI  27
OSHKOSH        LGT RAIN  44  41  89 SW12G21   29.79F FOG
$$

WIZ032>034-041-042-053>061-271600-
SOUTHWEST WISCONSIN

CITY           SKY/WX    TMP DP  RH WIND       PRES   REMARKS
LA CROSSE      CLOUDY    32  29  88 NW16      29.92R WCI  21
SPARTA         CLOUDY    32  32 100 NW12G17   29.90R FOG     WCI  23
VIROQUA        CLOUDY    32  32 100 W9        29.90R WCI  24
BOSCOBEL       CLOUDY    37  33  85 SW9       29.94R WCI  30
PRAIRIE DU CHI CLOUDY    34  31  89 W13G18    29.98R WCI  25
PLATTEVILLE    CLOUDY    35  32  90 SW17      29.96R WCI  24
$$

WIZ056-057-062-063-064-067-068-271600-
SOUTH CENTRAL WISCONSIN

CITY           SKY/WX    TMP DP  RH WIND       PRES   REMARKS
REEDSBURG      CLOUDY    37  35  94 W14G23    29.87R WCI  28
BARABOO/DELLS  CLOUDY    37  36  97 SW16G24   29.84F WCI  27
LONE ROCK      CLOUDY    41  34  76 W17       29.91R
MINERAL POINT  CLOUDY    36  32  87 W21G26    29.92R WCI  24
MADISON        CLOUDY    42  39  89 SW8       29.84F
MIDDLETON      CLOUDY    42  40  94 SW16      29.86F
WATERTOWN      DRIZZLE   46  46 100 SW12      29.84S
MONROE         CLOUDY    37  37 100 W24G31    29.90R WCI  26
JANESVILLE     CLOUDY    48  46  93 SW21      29.88R
$$

WIZ051-052-058>065-066-070>072-271600-
SOUTHEAST WISCONSIN

CITY           SKY/WX    TMP DP  RH WIND       PRES   REMARKS
MILWAUKEE      LGT RAIN  48  44  86 SW14      29.87F FOG
WAUKESHA       CLOUDY    45  45 100 S12G18    29.85F FOG
MILWAUKEE/TIMM CLOUDY    46  43  87 S13       29.85F FOG
RACINE         CLOUDY    48  45  89 S14G20    29.89F
BURLINGTON     CLOUDY    46  45  97 S16G23    29.88F
KENOSHA        CLOUDY    48  46  93 S13       29.87F FOG
FOND DU LAC    CLOUDY    46  42  86 SW9G20    29.80F
SHEBOYGAN      CLOUDY    43  42  97 S9        29.81F FOG
WEST BEND      DRIZZLE   45  43  93 S13       29.81F
JUNEAU         RAIN      45  44  97 SW10      29.83F
$$

LSZ147-162-271600-
LAKE SUPERIOR

STATION/POSITION TIME  TEMP    WIND        PRES    WAVE
                       AIR SEA DIR/SP/G            HT/PER
                 (UTC) (F)     (DEG/KT/KT) (MB)    (FT/S)
DEVILS ISLAND    1500   25     340/ 16/ 19 1017.0F
PORT WING        1400   26     330/  9/ 12 1017.3S
SAXON HARBOR     1400   30      10/ 12/ 15 1015.2R
$$

LMZ867-665-643>646-271600-
LAKE MICHIGAN

STATION/POSITION TIME  TEMP    WIND        PRES    WAVE
                       AIR SEA DIR/SP/G            HT/PER
                 (UTC) (F)     (DEG/KT/KT) (MB)    (FT/S)
CHAMBERS ISLAND  1400   34      30/ 14/ 17 1010.2F
NORTHPORT PIER   1400   35      60/ 12/ 15 1010.5F
SISTER BAY       1413          100/  8/ 17   N/A
ALGOMA LAKESHORE 1430          220/ 12/ 13   N/A
KEWAUNEE LAKESHO 1400   38     190/  9/ 10 1008.6F
SHEBOYGAN LAKESH 1500   41 39  180/ 18/ 19 1010.2F
PORT WASHINGTON  1440   45     200/  7/ 13 1011.5F
MILWAUKEE LAKESH 1400   46     210/ 14/ 15   N/A
KENOSHA   LAKESH 1500   49     200/ 11/ 20 1011.9F
$$

TC  - TEMPERATURE IN CELSIUS
VSB - VISIBILITY IN STATUTE MILES
WCI - WIND CHILL INDEX
HX  - HEAT INDEX



USA.gov is the U.S. government's official web portal to all federal, state and local government web resources and services.